Wind_Speed
34 34 33 33 33 31 29 25 23 22 21 21 20 20 18 18 18 17 16 15 15 14 13 12 11 10 9 9 8 8 7 7 6 6 5 5 5 4 4 4 4 4 4 4 4 5 5 5 5
35 35 35 35 35 32 29 26 25 24 23 22 22 21 21 20 19 18 18 17 16 16 15 14 13 12 11 10 10 9 9 8 8 8 7 7 6 6 5 5 5 5 6 6 6 6 6 7 7
36 37 37 37 36 33 30 27 27 26 25 24 23 23 23 21 20 20 19 18 18 17 17 16 14 13 13 12 11 10 10 10 10 10 9 8 8 7 7 7 7 7 7 8 8 8 8 9 9
38 38 39 39 36 33 31 29 28 28 27 26 25 24 24 23 22 21 21 20 19 19 18 17 16 15 15 14 13 12 12 11 11 11 10 10 9 9 9 9 9 9 9 10 10 10 10 10 10
41 41 41 39 36 34 32 31 30 29 28 28 27 26 25 24 24 23 22 21 21 20 19 18 17 17 16 15 15 14 13 13 12 12 11 11 11 11 11 11 11 11 11 11 11 11 11 12 12
43 43 43 40 37 34 33 32 32 31 30 29 29 27 26 26 25 24 23 22 22 21 20 19 19 18 17 17 16 16 15 14 14 14 13 13 13 13 13 13 13 13 13 13 12 12 13 13 13
44 44 44 41 39 37 35 34 33 33 32 31 30 29 28 27 26 26 25 24 23 22 21 20 20 19 19 18 18 17 16 16 15 15 15 15 15 15 15 15 15 14 14 14 14 14 14 15 15
46 46 45 43 41 38 37 35 35 34 34 33 32 31 29 28 27 27 26 25 24 23 22 22 21 20 20 19 19 18 18 17 17 17 17 17 16 16 16 16 16 16 16 16 16 16 16 16 16
47 48 46 44 42 40 38 38 37 36 35 35 33 32 31 30 29 28 27 26 25 24 24 23 22 22 21 21 20 20 19 19 18 18 18 18 17 17 17 17 17 17 17 16 16 16 17 17 17
48 48 46 44 43 42 40 40 39 38 37 36 35 34 33 32 31 30 28 27 26 26 25 24 24 23 22 22 22 21 21 20 20 19 19 19 18 18 18 18 18 18 17 17 17 17 17 17 17
49 48 46 46 45 44 43 42 41 40 39 38 37 36 35 34 32 31 30 29 28 27 26 26 25 25 24 23 23 22 22 22 21 21 20 20 20 20 20 19 19 19 19 19 19 18 19 19 19
50 49 48 47 46 46 44 43 43 42 40 40 39 38 37 35 34 33 32 31 30 29 28 27 26 26 25 25 24 24 23 23 23 23 22 22 22 21 21 21 20 20 20 20 20 20 20 20 20
50 50 50 49 48 47 46 45 44 43 42 41 41 40 38 37 36 35 34 33 32 31 30 29 28 28 27 26 26 25 24 24 24 24 24 24 23 23 23 22 22 22 21 21 22 21 22 22 22
49 50 50 50 49 49 47 46 45 43 43 42 42 41 40 39 38 37 36 34 33 32 32 31 30 29 28 28 27 26 26 25 25 25 25 25 25 25 24 24 24 23 23 23 23 23 24 24 24
48 50 51 51 50 50 49 48 45 44 44 43 42 42 41 40 39 38 37 36 35 34 33 32 32 31 30 29 29 28 27 26 26 26 26 26 26 26 26 26 25 25 25 25 25 26 26 26 26
47 49 51 51 50 50 51 49 46 45 44 43 43 43 42 41 40 39 38 37 36 35 35 34 33 32 32 31 30 29 28 28 27 28 28 28 28 28 28 28 27 27 27 27 27 27 28 28 28
47 48 49 50 50 50 51 49 47 46 45 44 43 43 43 42 41 40 39 39 38 37 36 35 34 34 33 32 31 30 30 29 29 29 30 30 30 30 30 30 29 28 29 29 29 29 29 30 30
45 46 46 47 48 49 51 49 48 47 45 44 44 44 43 43 42 41 41 40 39 38 37 36 36 35 34 33 32 31 31 31 31 31 31 31 31 31 31 31 31 31 31 31 31 31 31 31 32
42 44 44 46 47 48 50 50 49 48 46 45 45 44 44 43 43 42 41 40 39 38 37 37 37 36 35 34 34 33 33 32 32 32 32 33 33 32 33 33 33 33 33 33 32 33 33 33 34
41 42 42 44 46 47 49 50 49 49 47 46 46 45 44 44 43 42 41 41 40 39 38 37 37 37 36 36 35 34 34 34 33 33 33 33 33 33 33 34 34 34 34 34 34 34 35 35 36
40 41 42 43 44 46 47 49 49 49 47 46 46 46 45 44 43 42 42 41 40 39 38 38 38 38 37 37 36 35 35 35 34 34 34 34 34 34 34 35 35 36 36 36 36 36 37 37 38
38 39 40 40 43 45 46 47 48 48 47 46 45 45 45 44 44 43 42 42 41 40 39 39 39 39 38 37 37 37 36 35 35 35 35 35 35 35 35 36 36 37 37 37 38 38 39 40 40
36 37 39 39 41 44 45 46 47 47 47 45 44 45 45 45 44 43 43 42 42 41 40 39 39 39 39 39 38 37 37 37 36 36 36 36 36 36 37 38 38 38 39 39 39 40 41 41 41
34 35 37 39 40 44 44 45 46 46 45 44 44 44 45 45 45 44 44 43 42 42 41 41 40 40 40 39 39 38 38 37 38 37 37 37 37 38 38 39 39 40 40 40 41 41 42 42 42
32 34 36 37 41 43 42 44 45 44 44 44 43 43 44 44 45 45 45 44 43 42 42 41 41 40 40 40 39 39 38 38 38 38 38 39 39 40 40 40 41 41 41 42 42 42 43 43 44
31 32 34 35 38 41 41 42 43 43 43 43 43 43 43 44 45 45 45 44 44 43 43 42 41 41 41 41 40 40 40 40 39 39 40 40 40 41 41 41 42 42 43 43 43 44 44 45 45
31 33 33 34 37 38 39 40 41 42 43 43 43 43 43 44 44 44 45 44 44 43 43 42 42 42 42 42 42 41 41 41 41 41 41 41 42 42 43 43 43 44 44 45 45 45 45 46 47
31 31 32 34 36 37 38 39 39 41 41 42 42 42 43 44 44 44 44 44 43 43 43 43 43 43 43 42 42 42 43 43 43 43 43 43 43 43 44 44 44 45 45 46 46 46 47 47 48
31 31 31 32 35 37 38 39 39 39 40 41 41 41 42 42 43 43 43 43 43 43 43 44 44 44 44 44 44 43 44 44 45 45 45 44 44 45 45 45 46 46 47 47 47 47 48 48 49
30 31 32 32 34 36 37 38 37 38 39 40 41 41 41 42 42 42 43 43 43 43 43 44 44 44 44 45 45 45 45 45 46 46 46 46 46 45 45 46 46 47 47 47 47 48 48 49 49
Wind_Direction
232 232 232 232 232 233 234 233 232 232 232 232 230 230 227 225 224 226 225 224 223 223 222 221 222 222 222 222 222 225 229 234 235 236 239 240 242 248 254 264 273 281 289 297 302 307 307 308 307
232 232 232 232 232 232 233 232 232 232 232 231 230 230 229 228 226 227 226 226 226 227 226 226 227 229 229 228 229 232 236 239 241 242 244 246 249 255 259 264 273 277 281 288 294 297 298 300 303
232 231 232 233 232 232 232 231 231 232 231 231 231 230 230 229 228 228 228 229 229 230 231 231 231 233 233 234 234 236 239 242 244 246 247 250 253 256 260 265 272 278 280 283 288 290 293 295 297
232 232 232 233 232 231 231 230 231 231 231 231 231 231 230 229 229 229 229 230 232 232 232 233 234 234 235 237 240 241 242 243 245 248 249 250 254 258 262 267 273 278 278 280 282 284 288 291 291
232 232 233 233 232 231 231 231 231 231 232 231 231 231 230 229 229 230 231 231 232 233 233 233 234 235 237 239 242 244 245 245 246 248 250 252 256 260 263 268 273 277 278 278 280 282 284 286 288
233 233 234 233 232 232 232 231 231 232 231 232 232 231 230 230 229 230 230 231 232 233 233 233 234 236 239 240 242 244 246 247 247 249 253 255 259 261 264 268 271 274 276 277 278 279 282 284 287
234 234 235 234 233 231 231 231 231 232 231 231 231 231 230 230 230 230 230 231 231 232 233 235 235 237 239 241 242 243 245 246 248 251 254 257 260 262 264 267 270 272 273 275 276 278 280 282 285
234 235 234 234 233 232 231 231 231 232 232 231 230 230 230 230 229 230 230 231 232 233 234 235 236 238 240 241 242 243 245 247 250 253 255 258 262 264 265 268 270 271 272 273 275 277 279 281 284
235 234 234 233 233 233 231 231 231 231 232 231 230 230 230 230 229 229 230 230 232 233 235 235 237 238 240 241 242 244 246 249 252 256 258 260 263 265 266 268 270 270 271 272 273 275 277 279 282
234 234 233 233 232 232 230 230 230 230 230 230 229 229 229 229 229 229 230 231 232 234 235 236 237 238 240 241 243 245 248 250 253 256 259 261 263 265 267 268 269 269 269 271 273 275 276 278 280
234 233 233 232 231 231 230 229 229 229 229 229 229 229 229 229 229 230 230 231 233 234 236 237 238 239 240 242 244 246 248 250 253 256 258 261 263 264 266 267 268 269 269 270 273 275 276 278 280
233 232 231 231 229 229 229 229 229 229 229 229 229 229 229 229 229 230 230 231 233 235 236 238 240 241 242 243 244 246 249 251 253 255 258 260 263 264 266 267 268 268 268 269 272 275 277 279 280
232 231 230 229 229 228 228 228 228 228 228 228 229 229 230 229 229 230 230 231 233 235 237 238 240 242 243 244 245 246 249 251 253 255 257 259 261 263 265 266 267 268 268 269 271 274 277 278 279
231 231 230 229 228 227 228 227 228 228 228 228 229 229 229 229 229 230 231 232 233 235 237 238 240 241 243 244 246 246 248 251 253 256 258 259 260 262 264 265 267 268 268 269 270 272 275 277 278
230 230 229 228 227 227 227 227 227 227 228 228 229 229 229 229 230 230 231 232 234 235 237 239 241 242 243 245 246 247 248 250 253 256 257 259 260 261 262 264 266 267 268 269 270 272 274 276 278
230 229 228 226 227 227 227 226 226 226 228 228 229 229 229 229 230 231 231 233 234 236 238 239 241 242 243 244 246 248 249 251 254 256 258 259 260 261 261 263 266 267 268 268 269 271 274 276 277
229 229 229 227 226 227 227 226 225 226 227 227 228 228 228 228 229 230 232 233 235 236 238 239 240 241 243 244 246 248 250 252 255 258 259 260 261 262 262 264 266 267 267 268 270 271 274 276 277
229 229 229 228 227 228 228 227 225 225 226 226 227 227 227 228 229 230 231 233 235 236 238 239 240 240 242 244 246 248 250 253 255 258 260 261 262 262 263 264 265 266 267 269 270 272 274 276 277
229 229 229 228 227 228 228 227 225 225 225 225 226 227 227 228 229 230 231 233 234 236 237 239 239 240 242 244 247 249 251 254 255 257 260 261 262 263 263 264 265 267 268 269 271 273 274 276 278
227 228 228 228 228 228 227 227 225 224 225 226 226 227 227 228 229 230 231 233 234 235 237 238 240 240 242 244 246 249 252 253 255 257 260 261 262 263 264 265 266 267 268 269 271 273 275 276 278
226 226 227 228 228 228 228 227 226 225 225 225 226 227 227 227 228 230 231 233 234 235 237 238 239 240 242 244 246 248 251 252 255 258 260 262 263 264 265 266 266 268 269 270 272 274 275 277 278
227 226 227 228 228 228 227 227 225 224 225 225 225 227 227 228 229 230 231 232 234 236 237 238 239 241 242 244 246 248 250 253 255 258 259 261 263 264 265 266 267 268 269 271 273 275 276 277 279
227 227 227 227 228 229 228 229 225 224 225 224 225 227 228 228 229 231 232 233 234 236 238 239 240 242 243 245 247 249 251 253 255 258 260 261 263 265 266 267 268 269 270 271 273 275 277 278 279
226 225 226 228 229 229 227 230 227 224 225 225 226 227 228 229 230 231 233 234 236 237 239 240 241 242 244 246 248 250 252 254 256 258 260 261 263 265 266 267 268 270 271 272 274 275 276 278 279
223 223 225 227 228 230 228 231 230 225 225 226 226 227 228 229 231 232 233 235 236 238 240 241 242 243 244 246 248 250 252 254 256 258 260 262 264 265 266 268 269 271 272 273 274 276 277 278 278
223 225 226 229 230 230 229 232 231 226 225 226 227 228 229 230 231 232 233 235 236 238 239 241 242 243 245 247 249 251 253 255 256 258 261 262 264 266 267 268 270 271 273 274 275 276 277 278 279
225 226 227 230 232 234 233 233 232 228 226 226 227 228 229 231 233 234 234 235 236 237 239 241 242 244 246 247 249 251 253 255 257 259 261 263 265 266 268 269 271 272 274 275 275 276 277 279 281
227 228 229 231 233 235 235 234 233 229 228 228 229 230 231 232 233 234 234 235 237 238 239 240 242 245 246 248 250 252 254 256 258 261 262 264 265 267 268 270 271 272 273 275 276 276 278 280 282
228 227 230 233 234 234 237 237 234 232 231 231 231 231 231 232 233 234 236 236 237 238 240 241 244 246 248 250 252 254 256 258 259 261 263 265 266 267 269 270 271 272 274 275 276 278 279 280 282
230 230 230 233 236 236 238 240 235 235 234 233 233 233 232 233 233 234 235 236 238 240 241 243 245 247 249 252 254 255 257 259 260 262 264 265 267 268 269 270 271 273 274 275 277 278 279 281 282
Height
5832 5834 5837 5840 5842 5845 5848 5852 5854 5856 5858 5859 5861 5863 5865 5867 5869 5873 5873 5872 5874 5875 5876 5877 5878 5879 5880 5881 5881 5882 5883 5883 5883 5884 5884 5884 5884 5884 5884 5884 5883 5883 5883 5882 5882 5882 5881 5881 5880
5826 5829 5832 5834 5836 5840 5844 5848 5850 5852 5854 5856 5858 5860 5861 5863 5865 5867 5868 5870 5871 5873 5874 5875 5876 5877 5878 5879 5880 5880 5881 5882 5882 5882 5883 5883 5883 5883 5883 5883 5882 5882 5882 5881 5881 5881 5880 5880 5879
5819 5822 5825 5828 5831 5836 5840 5844 5846 5847 5850 5852 5854 5856 5858 5860 5862 5864 5865 5867 5869 5870 5871 5873 5874 5875 5876 5877 5878 5879 5879 5880 5880 5881 5881 5881 5882 5882 5882 5881 5881 5881 5881 5880 5880 5879 5879 5878 5878
5812 5815 5818 5822 5826 5831 5835 5839 5841 5842 5845 5847 5850 5852 5854 5857 5859 5861 5862 5864 5865 5867 5869 5870 5872 5873 5874 5875 5876 5877 5877 5878 5879 5879 5879 5880 5880 5880 5880 5880 5880 5879 5879 5879 5878 5878 5877 5877 5876
5804 5808 5811 5815 5821 5826 5829 5833 5835 5838 5840 5843 5845 5848 5850 5853 5855 5857 5858 5860 5862 5864 5866 5867 5869 5870 5872 5873 5874 5874 5875 5876 5876 5877 5877 5878 5878 5878 5878 5878 5878 5877 5877 5877 5876 5876 5875 5875 5874
5797 5801 5805 5809 5815 5820 5823 5827 5829 5832 5835 5838 5840 5843 5846 5848 5850 5853 5855 5857 5858 5860 5862 5864 5866 5867 5869 5870 5871 5872 5872 5873 5874 5874 5875 5875 5875 5876 5876 5876 5875 5875 5875 5875 5874 5874 5873 5873 5872
5789 5793 5797 5803 5808 5813 5817 5820 5823 5826 5829 5832 5835 5838 5841 5844 5846 5848 5851 5853 5855 5857 5859 5860 5862 5864 5865 5866 5868 5869 5870 5870 5871 5871 5872 5872 5873 5873 5873 5873 5873 5873 5872 5872 5871 5871 5870 5870 5869
5780 5785 5789 5795 5801 5806 5810 5813 5817 5820 5823 5826 5830 5833 5836 5839 5841 5844 5846 5849 5851 5853 5855 5857 5858 5860 5861 5863 5864 5865 5866 5867 5868 5868 5869 5869 5870 5870 5870 5870 5870 5870 5869 5869 5868 5868 5867 5867 5866
5770 5776 5781 5788 5793 5798 5803 5806 5810 5813 5816 5820 5824 5827 5831 5833 5836 5839 5842 5844 5846 5849 5851 5852 5854 5856 5857 5859 5860 5861 5862 5863 5864 5865 5865 5866 5866 5866 5867 5867 5866 5866 5866 5866 5865 5865 5864 5863 5863
5760 5766 5774 5780 5785 5789 5794 5798 5802 5806 5809 5813 5817 5821 5824 5827 5831 5834 5837 5839 5842 5844 5846 5848 5850 5852 5853 5855 5856 5857 5859 5859 5860 5861 5862 5862 5863 5863 5863 5863 5863 5863 5862 5862 5862 5861 5861 5860 5859
5751 5758 5765 5769 5775 5780 5785 5789 5794 5798 5802 5807 5811 5814 5818 5821 5825 5828 5831 5834 5837 5839 5841 5843 5845 5847 5849 5850 5852 5853 5854 5855 5856 5857 5858 5859 5859 5859 5859 5859 5859 5859 5859 5858 5858 5857 5857 5856 5855
5741 5748 5753 5759 5765 5770 5775 5781 5785 5790 5796 5799 5803 5807 5811 5815 5819 5822 5825 5828 5831 5834 5836 5838 5840 5842 5844 5845 5847 5849 5850 5851 5852 5853 5854 5854 5855 5855 5855 5855 5855 5855 5855 5854 5854 5853 5853 5852 5851
5730 5737 5742 5748 5754 5760 5766 5771 5777 5782 5787 5791 5795 5800 5804 5808 5812 5815 5819 5822 5825 5828 5830 5833 5835 5837 5839 5840 5842 5843 5845 5846 5847 5848 5849 5850 5850 5851 5851 5851 5851 5851 5850 5850 5850 5849 5848 5848 5847
5720 5725 5731 5737 5744 5750 5756 5762 5768 5774 5778 5783 5787 5792 5797 5801 5805 5808 5812 5816 5819 5822 5824 5827 5829 5831 5833 5835 5837 5838 5840 5841 5842 5843 5844 5845 5845 5845 5846 5846 5846 5846 5846 5845 5845 5844 5843 5843 5842
5709 5714 5720 5726 5733 5740 5746 5752 5760 5766 5770 5775 5779 5784 5789 5793 5797 5801 5805 5809 5812 5815 5818 5821 5823 5825 5828 5830 5831 5833 5834 5836 5837 5838 5839 5839 5840 5840 5840 5841 5841 5841 5840 5840 5839 5839 5838 5837 5836
5698 5703 5709 5717 5723 5730 5737 5744 5752 5755 5761 5766 5771 5776 5781 5785 5790 5794 5798 5801 5805 5808 5811 5814 5817 5819 5822 5824 5825 5827 5828 5830 5831 5832 5833 5833 5834 5834 5835 5835 5835 5835 5835 5834 5834 5833 5832 5832 5831
5688 5694 5701 5708 5714 5720 5726 5735 5741 5746 5752 5758 5763 5767 5772 5777 5782 5786 5790 5794 5798 5801 5804 5808 5810 5813 5815 5817 5819 5821 5822 5824 5825 5826 5827 5827 5827 5828 5828 5828 5828 5829 5828 5828 5828 5827 5826 5825 5824
5682 5687 5693 5699 5705 5711 5716 5724 5731 5737 5743 5749 5754 5759 5764 5769 5774 5778 5783 5786 5790 5794 5797 5800 5803 5806 5808 5811 5813 5814 5816 5817 5818 5819 5820 5820 5821 5821 5821 5822 5822 5822 5822 5821 5821 5820 5819 5819 5817
5674 5679 5684 5691 5696 5701 5707 5714 5721 5727 5733 5740 5745 5750 5756 5761 5765 5770 5774 5779 5782 5786 5790 5793 5796 5799 5801 5804 5806 5808 5809 5810 5812 5812 5813 5813 5814 5814 5814 5815 5815 5815 5815 5814 5814 5813 5812 5811 5810
5665 5670 5676 5682 5687 5692 5697 5704 5711 5717 5724 5731 5736 5742 5747 5752 5757 5762 5766 5771 5775 5779 5782 5785 5788 5791 5794 5796 5798 5800 5802 5803 5804 5805 5806 5806 5806 5807 5807 5807 5807 5807 5807 5807 5806 5806 5805 5804 5802
5656 5663 5669 5674 5678 5682 5688 5694 5702 5709 5715 5722 5728 5733 5739 5744 5749 5754 5758 5763 5767 5771 5774 5777 5780 5783 5786 5789 5791 5793 5794 5795 5797 5798 5799 5799 5799 5799 5799 5799 5799 5799 5799 5799 5798 5797 5796 5795 5794
5650 5656 5661 5665 5670 5674 5679 5685 5693 5700 5706 5713 5719 5725 5731 5736 5741 5746 5750 5754 5759 5762 5766 5769 5772 5775 5778 5780 5782 5784 5786 5788 5789 5790 5791 5791 5791 5791 5791 5791 5791 5791 5791 5790 5790 5789 5788 5786 5785
5643 5648 5653 5657 5661 5666 5671 5676 5686 5691 5698 5705 5711 5717 5722 5727 5732 5737 5742 5746 5750 5754 5757 5761 5764 5767 5769 5772 5774 5776 5778 5779 5781 5782 5782 5783 5783 5783 5783 5783 5783 5782 5782 5781 5781 5780 5778 5777 5775
5635 5641 5645 5648 5652 5657 5664 5668 5676 5684 5691 5698 5703 5708 5713 5719 5724 5728 5733 5737 5741 5745 5749 5752 5755 5758 5761 5763 5765 5768 5770 5771 5772 5773 5774 5774 5774 5774 5774 5774 5774 5773 5773 5772 5771 5770 5769 5767 5766
5628 5633 5637 5640 5643 5649 5657 5660 5668 5677 5683 5688 5694 5699 5704 5709 5715 5719 5724 5728 5732 5737 5740 5744 5747 5750 5752 5754 5757 5759 5761 5762 5763 5764 5765 5765 5766 5765 5765 5765 5765 5764 5764 5763 5761 5760 5759 5757 5755
5622 5627 5632 5635 5639 5644 5649 5652 5660 5668 5674 5679 5685 5690 5695 5700 5705 5710 5715 5719 5724 5728 5731 5735 5738 5741 5743 5746 5748 5750 5752 5753 5754 5755 5756 5756 5756 5756 5756 5755 5755 5754 5753 5752 5751 5750 5748 5747 5745
5616 5620 5625 5629 5632 5636 5641 5646 5653 5659 5664 5670 5676 5681 5686 5691 5696 5701 5705 5710 5714 5718 5722 5725 5728 5731 5734 5736 5738 5740 5742 5743 5745 5746 5746 5746 5746 5746 5746 5745 5745 5744 5743 5742 5741 5739 5738 5736 5734
5611 5615 5619 5622 5625 5629 5634 5639 5645 5650 5656 5662 5667 5672 5677 5682 5687 5691 5696 5701 5705 5709 5712 5716 5719 5722 5724 5727 5729 5731 5732 5734 5735 5736 5736 5736 5736 5736 5736 5735 5734 5733 5732 5731 5730 5728 5727 5725 5723
5605 5609 5612 5615 5619 5623 5627 5634 5638 5643 5649 5654 5659 5663 5668 5673 5677 5682 5687 5691 5696 5699 5703 5706 5709 5712 5714 5717 5719 5721 5722 5724 5724 5725 5726 5726 5726 5725 5725 5724 5723 5722 5721 5720 5719 5717 5716 5714 5711
5598 5602 5606 5610 5613 5617 5621 5628 5630 5636 5640 5645 5650 5654 5659 5663 5668 5673 5677 5682 5686 5690 5693 5696 5699 5702 5704 5707 5708 5710 5712 5713 5714 5715 5715 5715 5715 5714 5714 5713 5712 5711 5710 5709 5708 5706 5704 5702 5699